User: anonymous   Login
Location: Unspecified
(0.0000°N, 0.0000°E)
Time: 07:20:33
(UTC+00:00)
Language:

NEE 01 PEGASUS - Orbit

View from above orbital plane
View from above orbital plane
View from above satellite
View from above satellite

Ground track
Ground track

The orbit data is extracted from the following two-line orbital elements,

1 39151U 13018B   19050.21620754  .00000124  00000-0  23454-4 0  9993
2 39151  97.9705 147.5389 0016172 225.4033 134.5860 14.80000270314053
Epoch (UTC): 19 February 2019 05:11:20
Eccentricity: 0.0016172
inclination: 97.9705°
perigee height: 618 km
apogee height: 640 km
right ascension of ascending node: 147.5389°
argument of perigee: 225.4033°
revolutions per day: 14.80000270
mean anomaly at epoch: 134.5860°
orbit number at epoch: 31405

The dashed part of the orbit path shows where the satellite is in the earth's shadow,  

DLR